Terug naar catalogus

HERMES-5

ActiefCommunicatieSSO
NORAD 63834·PAYLOAD·🇮🇹 Italy

Gelanceerd Mar 15, 2025 vanaf Vandenberg Space Force Base

Loading…

Volgende Passages (komende 24 uur)

TLE

VersSource: Space-Track

Epoch: Sep 14, 2026, 03:58 UTC

1 63834U 25052BQ  26257.16583947  .00005061  00000-0  17641-3 0  9997
2 63834  97.3836 151.0628 0003926 164.3037 195.8326 15.30088095 83553

Volg HERMES-5 in realtime met AllMySat

Download on the App Store